Regional Weather Roundup
Issued by NWS Charleston, SC

Current Version | Previous Version | Graphics & Text | Print | Product List | Glossary On
Versions: 1 2 3 4 5 6 7 8 9 10 11 12 13 14 15 16 17 18 19 20 21 22 23 24 25 26 27 28 29 30 31 32 33 34 35 36 37 38 39 40 41 42 43 44 45 46 47 48 49 50
000
ASUS42 KCHS 022312
RWRCHS

REGIONAL WEATHER ROUNDUP
NATIONAL WEATHER SERVICE CHARLESTON SC
600 PM EST FRI DEC 02 2016

NOTE: "FAIR" INDICATES FEW OR NO CLOUDS BELOW 12,000 FEET WITH NO
SIGNIFICANT WEATHER AND/OR OBSTRUCTIONS TO VISIBILITY.

NOT ALL STATIONS ARE QUALITY CONTROLLED. USE DATA WITH CAUTION...
ESPECIALLY DEWPOINT OBSERVATIONS.

SCZ027-030-031-034>040-042>050-030000-
...SOUTHEAST SOUTH CAROLINA...

CITY           SKY/WX    TMP DP  RH WIND       PRES   REMARKS
N CHARLESTON   PTCLDY    53  36  52 NW3       30.17R
WATERFRONT PRK   N/A     58  39  49 N7        30.15R
MOUNT PLEASANT NOT AVBL
JOHNS ISLAND   FAIR      52  41  66 CALM      30.17R
PINOPOLIS        N/A     57  39  51 NW7       30.06S
MONCKS CORNER  FAIR      45  39  81 CALM      30.17R
SUMMERVILLE    FAIR      50  41  71 CALM      30.18R
BEAUFORT MCAS  CLEAR     50  41  71 W5        30.19R
BEAUFORT ARPT  FAIR      54  41  62 NW5       30.18R
HILTON HEAD IS NOT AVBL
WALTERBORO     CLEAR     50  41  71 CALM      30.19R
ALLENDALE      FAIR      52  39  62 CALM      30.18R

...SOUTHERN MIDLANDS AND PEE DEE...

CITY           SKY/WX    TMP DP  RH WIND       PRES   REMARKS
GEORGETOWN     NOT AVBL
KINGSTREE      FAIR      46  36  66 CALM      30.16R
ORANGEBURG     CLEAR     53  33  46 CALM      30.17R
BARNWELL       NOT AVBL
AIKEN          NOT AVBL
MANNING        NOT AVBL
COLUMBIA       PTCLDY    52  35  52 W5        30.16R
SUMTER         CLEAR     49  36  62 CALM      30.14R
FLORENCE       CLEAR     51  36  56 W5        30.15R
MYRTLE BEACH   CLEAR     52  36  54 NW7       30.16R
N MYRTLE BEACH CLEAR     49  41  74 CALM      30.14R

$$

GAZ063-065-086>088-099>101-113>116-118-119-134>141-150-030000-
...SOUTHEAST GEORGIA...

CITY           SKY/WX    TMP DP  RH WIND       PRES   REMARKS
SAVANNAH ARPT  PTCLDY    53  38  56 N3        30.18R
HUNTER AAF     CLEAR     55  41  60 VRB3      30.16R
FORT STEWART   CLEAR     51  42  70 CALM      30.16R
STATESBORO     CLEAR     48  43  81 CALM      30.18S
SYLVANIA       CLEAR    N/A N/A N/A CALM      30.19S
CLAXTON        FAIR      49  45  84 CALM      30.19R

...CSRA...CENTRAL AND FAR SOUTHEAST GEORGIA...

CITY           SKY/WX    TMP DP  RH WIND       PRES   REMARKS
THOMSON        CLEAR     53  37  56 CALM      30.23R
AUGUSTA-BUSH   CLEAR     51  35  54 CALM      30.18R
AUGUSTA-DANIEL CLEAR     55  32  41 CALM      30.19R
SWAINSBORO     FAIR      50  37  62 CALM      30.20R
VIDALIA        CLEAR     55  39  54 N5        30.19R
EASTMAN        FAIR      52  20  28 CALM      30.22S
HAZLEHURST     FAIR      58  36  44 N3        30.17F
ALMA           CLEAR     52  38  58 CALM      30.17S
WAYCROSS       PTCLDY    59  39  47 N3        30.18S
JESUP          FAIR      55  43  62 CALM      30.18S
BAXLEY         FAIR      57  37  47 CALM      30.17S
BRUNSWICK      CLEAR     54  46  76 CALM      30.18R
SAINT SIMONS   CLEAR     58  38  47 N6        30.17R

$$

SCZ027-028-034-036>038-045-046-048>050-GAZ119-141-030000-
...LAKE AND SUPPLEMENTAL COASTAL OBSERVATIONS...

STATION/POSITION TIME  TEMP    WIND        PRES    WAVE   SWELL
                       AIR SEA DIR/SP/G            HT/PER HT/PER/DIR
                 (UTC) (F)     (DEG/KT/KT) (MB)    (FT/S) (FT/S/D)
WINYAH BAY       2145   57     310/  4     1020.0
LAKE MURRAY      2220   58     270/  3/  7 1020.7R
ACE BASIN NERRS  2145   59     310/  1     1021.0
FORT PULASKI     NOT AVBL
SAPELO ISLAND    2200   61     340/  7     1021.0

$$

ANZ835-935-AMZ111-154-330-350-352-354-370-450-454-472-030000-
...C-MAN AND BUOY OBSERVATIONS...

STATION/POSITION TIME  TEMP    WIND        PRES    WAVE   SWELL
                       AIR SEA DIR/SP/G            HT/PER HT/PER/DIR
                 (UTC) (F)     (DEG/KT/KT) (MB)    (FT/S) (FT/S/D)
BUOY 41004       2250   60 74  330/ 10/ 16 1020.5R   3/ 8   2/110/ 8
BUOY 41008       2250   60 65   20/  8/ 10 1021.5R   2/ 8   2/130/ 8
FOLLY BEACH CMAN 2200   58     320/  4/  6 1021.4R
CAPERS NEARSHORE NOT AVBL
FRIPP NEARSHORE  NOT AVBL


STATION/POSITION TIME  TEMP    WIND        PRES    WAVE   SWELL
                       AIR SEA DIR/SP/G            HT/PER HT/PER/DIR
                 (UTC) (F)     (DEG/KT/KT) (MB)    (FT/S) (FT/S/D)
5E ST. MARYS GA  NOT AVBL
FRYING PAN BUOY  2250   60 74  310/ 14/ 19 1019.9R   3/ 5   2/130/ 9
BUOY 41025       2250   56 76  310/ 14/ 17 1018.7R   3/ 7   2/ 70/ 7
CAPE LOOKOUT NC  2200   55     280/ 13/ 15 1018.6R
BUOY 41002       2250   69 74  310/ 12/ 16 1017.7R   4/ 6   3/280/ 6
BUOY 41010       NOT AVBL
ST AUGUSTINE FL  2300   62 67   20/  9/ 11 1021.9R


$$




USA.gov is the U.S. government's official web portal to all federal, state and local government web resources and services.